Scottsbluff, NE

9:17 PM MST on November 22, 2017 (GMT -0700)
Heilig

Weather History for KBFF - January, 2014

Change the Weather History Date:

Friday, January 24, 2014

  Actual Average Record
Temperature  
Mean Temperature 36 °F 28 °F  
Max Temperature 55 °F 41 °F 65 °F (2013)
Min Temperature 16 °F 14 °F -19 °F (1894)
Degree Days  
Heating Degree Days 29 37  
Month to date heating degree days 814 911  
Since 1 July heating degree days 3542 3683  
Cooling Degree Days 0 0  
Month to date cooling degree days 0 0  
Year to date cooling degree days 0 0  
Moisture  
Dew Point 12 °F    
Average Humidity 47    
Maximum Humidity 73    
Minimum Humidity 20    
Precipitation  
Precipitation 0.00 in 0.01 in 0.82 in (1921)
Month to date precipitation 0.30 0.31  
Year to date precipitation 0.30 0.31  
Snow  
Snow 0.00 in 0.10 in 8.50 in (1921)
Month to date snowfall 3.7 4.1  
Since 1 July snowfall 27.8 20.1  
Snow Depth 0.00 in    
Sea Level Pressure  
Sea Level Pressure 30.17 in    
Wind  
Wind Speed 19 mph (WNW)    
Max Wind Speed 29 mph    
Max Gust Speed 39 mph    
Visibility 10 miles    
Events      
T = Trace of Precipitation, MM = Missing Value Source: NWS Daily Summary

Daily Weather History Graph

Daily Weather History Graph

Search for Another Location

Airport or City:

Trip Planner

Search our weather history database for the weather conditions in past years. The results will help you decide how hot, cold, wet, or windy it might be!

Date:

Astronomy

Jan. 24, 2014 Rise Set
Actual Time 7:13 AM MST 4:59 PM MST
Civil Twilight 6:43 AM MST 5:29 PM MST
Nautical Twilight 6:10 AM MST 6:03 PM MST
Astronomical Twilight 5:37 AM MST 6:36 PM MST
Moon 12:42 AM MST (1/24) 11:20 AM MST (1/24)
Length of Visible Light 10h 45m
Length of Day
9h 45m
Last Quarter, 44% of the Moon is Illuminated
Jan 24
Last Quarter
Jan 30
New
Feb 6
First Quarter
Feb 14
Full
Feb 22
Last Quarter

Hourly Weather History & Observations

Time (MST) Temp. Windchill Dew Point Humidity Pressure Visibility Wind Dir Wind Speed Gust Speed Precip Events Conditions
12:53 AM 19.0 °F 10.0 °F 10.0 °F 68% 30.33 in 10.0 mi WNW 6.9 mph - N/A   Clear
1:53 AM 26.1 °F 16.8 °F 10.0 °F 51% 30.30 in 10.0 mi WNW 9.2 mph - N/A   Clear
2:53 AM 25.0 °F 15.5 °F 10.0 °F 53% 30.29 in 10.0 mi WNW 9.2 mph - N/A   Clear
3:53 AM 30.0 °F 17.5 °F 9.0 °F 41% 30.25 in 10.0 mi West 19.6 mph - N/A   Clear
4:53 AM 33.1 °F 21.2 °F 7.0 °F 34% 30.27 in 10.0 mi WNW 20.7 mph 29.9 mph N/A   Overcast
5:53 AM 34.0 °F 22.7 °F 6.1 °F 31% 30.28 in 10.0 mi WNW 19.6 mph - N/A   Overcast
6:53 AM 35.1 °F 24.8 °F 6.1 °F 30% 30.26 in 10.0 mi West 17.3 mph 27.6 mph N/A   Overcast
7:53 AM 36.0 °F 26.3 °F 6.1 °F 29% 30.27 in 10.0 mi WNW 16.1 mph 23.0 mph N/A   Mostly Cloudy
8:53 AM 39.9 °F 30.8 °F 6.1 °F 25% 30.27 in 10.0 mi WNW 18.4 mph 31.1 mph N/A   Overcast
9:53 AM 44.1 °F 35.0 °F 7.0 °F 22% 30.23 in 10.0 mi WNW 24.2 mph 31.1 mph N/A   Scattered Clouds
10:53 AM 46.0 °F 38.8 °F 9.0 °F 22% 30.22 in 10.0 mi West 18.4 mph 34.5 mph N/A   Mostly Cloudy
11:53 AM 51.1 °F - 12.0 °F 21% 30.17 in 10.0 mi West 21.9 mph 34.5 mph N/A   Scattered Clouds
12:53 PM 50.0 °F - 12.9 °F 23% 30.13 in 10.0 mi West 24.2 mph 32.2 mph N/A   Clear
1:53 PM 54.0 °F - 15.1 °F 22% 30.06 in 10.0 mi West 23.0 mph 35.7 mph N/A   Clear
2:53 PM 53.1 °F - 14.0 °F 21% 30.07 in 10.0 mi West 24.2 mph 32.2 mph N/A   Clear
3:53 PM 52.0 °F - 15.1 °F 23% 30.04 in 10.0 mi West 23.0 mph 34.5 mph N/A   Clear
4:53 PM 48.9 °F - 15.1 °F 26% 30.03 in 10.0 mi West 20.7 mph 32.2 mph N/A   Clear
5:53 PM 46.9 °F - 14.0 °F 27% 30.04 in 10.0 mi West 21.9 mph 33.4 mph N/A   Clear
6:53 PM 45.0 °F 36.6 °F 15.1 °F 30% 30.08 in 10.0 mi West 21.9 mph 28.8 mph N/A   Clear
7:53 PM 43.0 °F 35.7 °F 15.1 °F 32% 30.11 in 10.0 mi WNW 15.0 mph - N/A   Clear
8:53 PM 39.9 °F 32.9 °F 17.1 °F 40% 30.11 in 10.0 mi WNW 11.5 mph - N/A   Clear
9:53 PM 42.1 °F 33.1 °F 16.0 °F 35% 30.10 in 10.0 mi WNW 20.7 mph 26.5 mph N/A   Clear
10:53 PM 42.1 °F 33.6 °F 16.0 °F 35% 30.11 in 10.0 mi WNW 18.4 mph 25.3 mph N/A   Mostly Cloudy
11:53 PM 42.1 °F 33.3 °F 16.0 °F 35% 30.08 in 10.0 mi WNW 19.6 mph 26.5 mph N/A   Partly Cloudy